Location: Edoum�
(0.9447°N, 10.6482°E)
Time: 23:19:15
(UTC+00:00)

GPS 2-14 Rocket1 - Pass Details

Date: 07 June 2020
Orbit: 476 x 541 km, 20.7° (Epoch: 10 July)

Event Time Altitude Azimuth Distance (km) Brightness Sun altitude
Exits shadow 04:37:06 11° 235° (SW) 1,616 4.6 -8.7°
Maximum altitude 04:39:13 15° 200° (SSW) 1,356 4.4 -8.2°
Drops below altitude 10° 04:41:32 10° 162° (SSE) 1,647 5.2 -7.6°
Sets 04:44:27 0° 139° (SE) 2,517 6.4 -7.0°
